Weather observations for the past three days for
KANAB MUNICIPAL AIRPORT
Imperial (Metric)
Date Time (mdt) Wind (mph) Vis. (mi.) Weather Sky Cond. Temperature (ºF) Relative Humidity Wind Chill (°F) Heat Index (°F) Pressure Precipitation (in)
Air Dwpt 6 hour altimeter (in) sea level (mb) 1 hr 3 hr 6 hr
Max. Min.
24 05:35 Calm 10.00 Fair CLR 62.6 62.6 100% 30.31 0.0
24 05:15 Calm 10.00 Fair CLR 64.4 64.4 100% 30.31 0.0
24 04:55 Calm 10.00 Fair CLR 62.6 62.6 100% 30.31 0.0
24 04:35 Calm 10.00 Fair CLR 64.4 64.4 100% 30.31 0.0
24 04:15 Calm 10.00 Fair CLR 64.4 64.4 100% 30.31 0.0
24 03:55 Calm 10.00 Fair CLR 64.4 64.4 100% 30.31 0.0
24 03:15 Calm 10.00 Fair CLR 66.2 66.2 100% 30.31 0.0
24 02:55 Calm 10.00 Fair CLR 66.2 66.2 100% 30.31 0.0
24 02:35 Calm 10.00 Fair CLR 68 66.2 94% 30.31 0.0
24 02:15 Calm 10.00 Fair CLR 68 66.2 94% 30.3 0.0
24 01:55 Calm 10.00 Fair CLR 68 64.4 88% 30.3 0.0
24 01:35 Calm 10.00 Fair CLR 68 62.6 83% 30.31 0.0
24 01:15 Calm 10.00 Fair CLR 69.8 62.6 78% 30.31 0.0
24 00:55 Calm 10.00 Fair CLR 69.8 62.6 78% 30.31 0.0
24 00:35 Calm 10.00 Fair CLR 69.8 60.8 73% 30.3 0.0
24 00:15 Calm 10.00 Fair CLR 71.6 60.8 69% 30.31 0.0
23 23:55 Calm 10.00 Fair CLR 73.4 59 61% 30.3 0.0
23 23:15 Calm 10.00 Fair CLR 71.6 59 65% 30.29 0.0
23 22:55 Calm 10.00 Fair CLR 73.4 59 61% 30.28 0.0
23 22:35 Calm 10.00 Fair CLR 75.2 60.8 61% 77 30.28 0.0
23 22:15 Calm 10.00 Fair CLR 73.4 62.6 69% 30.27 0.0
23 21:55 Calm 10.00 Fair CLR 73.4 66.2 78% 30.27 0.0
23 21:35 Calm 10.00 Fair CLR 73.4 64.4 74% 30.27 0.0
23 21:15 Calm 10.00 Fair CLR 75.2 62.6 65% 77 30.26 0.0
23 20:55 Calm 10.00 Fair CLR 75.2 62.6 65% 77 30.25 0.0
23 20:35 Calm 10.00 Fair CLR 78.8 -31 1% 77 30.25 0.0
23 20:15 Calm 10.00 Fair CLR 78.8 -31 1% 77 30.25 0.0
23 19:55 Calm 10.00 Fair CLR 80.6 -29.2 1% 78 30.25 0.0
23 19:35 SW 5 10.00 Fair CLR 82.4 -29.2 1% 80 30.26 0.0
23 19:15 Calm 10.00 A Few Clouds FEW120 82.4 -29.2 1% 80 30.25 0.0
23 18:55 W 6 10.00 Mostly Cloudy BKN120 80.6 -29.2 1% 78 30.25 0.0
23 18:35 W 7 10.00 Mostly Cloudy BKN120 80.6 -29.2 1% 78 30.24 0.0
23 18:15 Calm 10.00 Partly Cloudy SCT120 82.4 -29.2 1% 80 30.23 0.0
23 17:55 SW 7 10.00 Fair CLR 86 -27.4 1% 83 30.22 0.0
23 17:35 S 8 G 15 10.00 Fair CLR 86 -25.6 1% 83 30.21 0.0
23 17:15 SE 12 10.00 A Few Clouds FEW046 FEW075 FEW090 86 21.2 9% 83 30.2 0.0
23 16:55 E 12 10.00 A Few Clouds FEW044 FEW075 FEW090 84.2 -27.4 1% 82 30.19 0.0
23 16:35 Calm 10.00 Fair CLR 86 -25.6 1% 83 30.2 0.0
23 16:15 Calm 10.00 Partly Cloudy FEW037 FEW046 SCT120 87.8 53.6 31% 86 30.2 0.0
23 15:55 SE 18 G 30 10.00 Mostly Cloudy FEW034 SCT048 BKN095 84.2 -27.4 1% 82 30.2 0.0 0.04
23 15:35 NE 20 G 41 7.00 Mostly Cloudy SCT034 BKN046 BKN060 80.6 -29.2 1% 78 30.21 0.0
23 15:15 NE 15 G 25 10.00 Mostly Cloudy FEW010 SCT034 BKN050 75.2 -29.2 1% 73 30.21 0.0
23 14:55 NW 22 G 29 4.00 Mostly Cloudy with Haze and Breezy FEW005 SCT031 BKN075 77 -32.8 1% 75 30.23 0.0 0.03
23 14:35 N 18 G 36 9.00 Partly Cloudy SCT110 89.6 -23.8 1% 86 30.2 0.0
23 14:15 Calm 10.00 Fair CLR 95 -20.2 1% 90 30.17 0.0
23 13:55 Calm 10.00 Fair CLR 96.8 -20.2 1% 92 30.17 0.0
23 13:35 Calm 10.00 Fair CLR 95 -20.2 1% 90 30.18 0.0
23 13:15 Calm 10.00 Fair CLR 95 -20.2 1% 90 30.18 0.0
23 12:35 Calm 10.00 Fair CLR 93.2 -22 1% 89 30.2 0.0
23 12:15 Calm 10.00 Fair CLR 91.4 -23.8 1% 88 30.2 0.0
23 11:55 Calm 10.00 Fair CLR 89.6 -23.8 1% 86 30.21 0.0
23 11:35 Calm 10.00 Fair CLR 89.6 -23.8 1% 86 30.22 0.0
23 11:15 Calm 10.00 Fair CLR 87.8 -25.6 1% 85 30.22 0.0
23 10:55 Calm 10.00 Fair CLR 86 -25.6 1% 83 30.22 0.0
23 10:35 Calm 10.00 Fair CLR 86 -27.4 1% 83 30.22 0.0
23 10:15 Calm 10.00 Fair CLR 84.2 -27.4 1% 82 30.23 0.0
23 09:55 Calm 10.00 Fair CLR 82.4 -29.2 1% 80 30.23 0.0
23 09:35 Calm 10.00 Fair CLR 78.8 53.6 42% 79 30.23 0.0
23 09:15 Calm 10.00 Fair CLR 77 55.4 47% 79 30.23 0.0
23 08:55 Calm 10.00 Fair CLR 77 53.6 44% 78 30.23 0.0
23 08:35 NE 3 10.00 Fair CLR 73.4 51.8 47% 30.23 0.0
23 08:15 N 5 10.00 Fair CLR 71.6 51.8 50% 30.23 0.0
23 07:55 N 3 10.00 Fair CLR 68 51.8 56% 30.23 0.0
23 07:35 N 8 10.00 Fair CLR 66.2 51.8 60% 30.22 0.0
23 07:15 Calm 10.00 Fair CLR 62.6 53.6 73% 30.22 0.0
23 06:55 Calm 10.00 Fair CLR 62.6 53.6 73% 30.22 0.0
23 06:35 Calm 10.00 Fair CLR 60.8 53.6 77% 30.21 0.0
23 06:15 Calm 10.00 Fair CLR 62.6 51.8 68% 30.21 0.0
23 05:55 Calm 10.00 Fair CLR 62.6 51.8 68% 30.21 0.0
23 05:35 Calm 10.00 Fair CLR 62.6 53.6 73% 30.2 0.0
23 05:15 Calm 10.00 Fair CLR 60.8 53.6 77% 30.2 0.0
23 04:55 Calm 10.00 Fair CLR 62.6 53.6 73% 30.19 0.0
23 04:35 Calm 10.00 Fair CLR 62.6 53.6 73% 30.19 0.0
23 04:15 Calm 10.00 Fair CLR 64.4 53.6 68% 30.18 0.0
23 03:55 Calm 10.00 Fair CLR 62.6 53.6 73% 30.18 0.0
23 03:35 Calm 10.00 Fair CLR 64.4 55.4 73% 30.18 0.0
23 03:15 Calm 10.00 Fair CLR 66.2 55.4 68% 30.18 0.0
23 02:55 Calm 10.00 Fair CLR 66.2 55.4 68% 30.18 0.0
23 02:35 Calm 10.00 Fair CLR 66.2 53.6 64% 30.17 0.0
23 02:15 Calm 10.00 Fair CLR 66.2 55.4 68% 30.17 0.0
23 01:55 Calm 10.00 Fair CLR 66.2 55.4 68% 30.17 0.0
23 01:35 Calm 10.00 Fair CLR 66.2 55.4 68% 30.17 0.0
23 01:15 Calm 10.00 Fair CLR 66.2 55.4 68% 30.17 0.0
23 00:55 Calm 10.00 Fair CLR 68 55.4 64% 30.18 0.0
23 00:35 Calm 10.00 Fair CLR 68 55.4 64% 30.17 0.0
23 00:15 Calm 10.00 Fair CLR 68 55.4 64% 30.17 0.0
22 23:55 Calm 10.00 Fair CLR 69.8 55.4 60% 30.17 0.0
22 23:35 Calm 10.00 Fair CLR 71.6 55.4 57% 30.17 0.0
22 23:15 Calm 10.00 Fair CLR 71.6 53.6 53% 30.17 0.0
22 22:55 Calm 10.00 Fair CLR 73.4 55.4 53% 30.16 0.0
22 22:35 Calm 10.00 Fair CLR 71.6 53.6 53% 30.16 0.0
22 22:15 Calm 10.00 Fair CLR 71.6 55.4 57% 30.15 0.0
22 21:55 Calm 10.00 Fair CLR 75.2 53.6 47% 78 30.14 0.0
22 21:35 Calm 10.00 Fair CLR 77 53.6 44% 78 30.12 0.0
22 21:10 Calm 10.00 Fair CLR 78.8 53.6 42% 79 30.11 0.0
22 20:55 Calm 10.00 Fair CLR 78.8 55.4 45% 79 30.11 0.0
22 20:35 Calm 10.00 Fair CLR 82.4 53.6 37% 81 30.11 0.0
22 20:15 SW 7 10.00 Fair CLR 84.2 53.6 35% 83 30.11 0.0
22 19:55 SW 13 10.00 Fair CLR 86 51.8 31% 84 30.11 0.0
22 19:35 SW 13 G 18 10.00 Fair CLR 86 50 29% 84 30.1 0.0
22 19:15 SW 16 10.00 Fair CLR 87.8 50 27% 85 30.1 0.0
22 18:55 SW 20 10.00 Fair CLR 87.8 51.8 29% 85 30.1 0.0
22 18:35 Calm 10.00 Fair CLR 89.6 51.8 27% 87 30.1 0.0
22 18:15 Calm 10.00 Fair CLR 89.6 51.8 27% 87 30.09 0.0
22 17:55 Vrbl 3 G 20 10.00 Partly Cloudy FEW033 FEW050 SCT110 91.4 42.8 18% 88 30.09 0.0
22 17:35 N 17 G 31 10.00 Mostly Cloudy FEW039 FEW048 BKN110 89.6 50 26% 87 30.12 0.0
22 17:15 N 10 10.00 Partly Cloudy SCT110 93.2 48.2 21% 90 30.11 0.0
22 16:55 W 10 G 16 10.00 Fair CLR 93.2 50 23% 90 30.1 0.0
22 16:30 W 16 10.00 Fair CLR 93.2 50 23% 90 30.09 0.0
22 16:15 SW 10 G 17 10.00 Fair CLR 96.8 50 20% 94 30.1 0.0
22 15:55 W 12 G 21 10.00 Fair CLR 96.8 50 20% 94 30.11 0.0
22 15:35 W 18 10.00 Fair CLR 91.4 50 24% 88 30.11 0.0
22 15:15 W 8 10.00 Fair CLR 96.8 48.2 19% 93 30.11 0.0
22 14:50 Vrbl 5 10.00 Fair CLR 96.8 48.2 19% 93 30.12 0.0
22 14:35 Calm 10.00 A Few Clouds FEW047 FEW110 95 48.2 20% 92 30.12 0.0
22 14:15 Calm 10.00 A Few Clouds FEW048 FEW060 FEW110 93.2 48.2 21% 90 30.13 0.0
22 13:55 Calm 10.00 Fair CLR 93.2 48.2 21% 90 30.14 0.0
22 13:35 Vrbl 5 10.00 Fair CLR 93.2 48.2 21% 90 30.15 0.0
22 13:15 Calm 10.00 Fair CLR 91.4 48.2 23% 88 30.15 0.0
22 12:55 Calm 10.00 Fair CLR 91.4 48.2 23% 88 30.16 0.0
22 12:35 E 3 10.00 Fair CLR 91.4 48.2 23% 88 30.16 0.0
22 12:15 Calm 10.00 Fair CLR 91.4 48.2 23% 88 30.17 0.0
22 11:55 E 8 10.00 Fair CLR 91.4 46.4 21% 88 30.17 0.0
22 11:35 Calm 9.00 Fair CLR 89.6 48.2 24% 86 30.18 0.0
22 11:15 E 9 10.00 Fair CLR 89.6 51.8 27% 87 30.18 0.0
22 10:55 E 9 10.00 Fair CLR 87.8 53.6 31% 86 30.19 0.0
22 10:35 Calm 10.00 Fair CLR 86 55.4 35% 85 30.19 0.0
22 10:15 Calm 10.00 Fair CLR 82.4 55.4 40% 82 30.2 0.0
22 09:55 Calm 10.00 Fair CLR 82.4 55.4 40% 82 30.2 0.0
22 09:35 Calm 10.00 Fair CLR 80.6 55.4 42% 81 30.21 0.0
22 09:15 Calm 10.00 Fair CLR 77 53.6 44% 78 30.21 0.0
22 08:55 Calm 10.00 Fair CLR 75.2 51.8 44% 78 30.22 0.0
22 08:35 Calm 10.00 Fair CLR 73.4 53.6 50% 30.22 0.0
22 08:15 Calm 10.00 Fair CLR 69.8 53.6 57% 30.22 0.0
22 07:55 Calm 10.00 Fair CLR 69.8 51.8 53% 30.21 0.0
22 07:35 Calm 10.00 Fair CLR 66.2 53.6 64% 30.21 0.0
22 07:15 Calm 10.00 Fair CLR 64.4 55.4 73% 30.21 0.0
22 06:55 Calm 10.00 Fair CLR 66.2 51.8 60% 30.2 0.0
22 06:35 NE 6 10.00 Fair CLR 64.4 51.8 64% 30.2 0.0
22 06:15 NE 7 10.00 Fair CLR 66.2 51.8 60% 30.19 0.0
22 05:50 NE 6 10.00 Fair CLR 64.4 51.8 64% 30.19 0.0
22 05:30 N 3 10.00 Fair CLR 64.4 51.8 64% 30.18 0.0
22 05:15 Calm 10.00 Fair CLR 64.4 53.6 68% 30.18 0.0
22 04:50 Calm 10.00 Fair CLR 64.4 51.8 64% 30.18 0.0
22 04:35 Calm 10.00 Fair CLR 64.4 53.6 68% 30.18 0.0
22 04:15 Calm 10.00 Fair CLR 64.4 53.6 68% 30.18 0.0
22 03:50 Calm 10.00 Fair CLR 62.6 53.6 73% 30.18 0.0
22 03:30 Calm 10.00 Fair CLR 64.4 51.8 64% 30.18 0.0
22 03:15 Calm 10.00 Fair CLR 64.4 51.8 64% 30.18 0.0
22 02:55 Calm 10.00 Fair CLR 64.4 51.8 64% 30.17 0.0
22 02:25 Calm 10.00 Fair CLR 66.2 53.6 64% 30.17 0.0
22 02:15 E 7 10.00 Fair CLR 66.2 53.6 64% 30.17 0.0
22 01:50 Calm 10.00 Fair CLR 66.2 55.4 68% 30.17 0.0
22 01:30 Calm 10.00 Fair CLR 69.8 53.6 57% 30.17 0.0
22 01:15 Calm 10.00 Fair CLR 69.8 53.6 57% 30.17 0.0
22 00:50 Calm 10.00 Fair CLR 69.8 53.6 57% 30.17 0.0
22 00:30 Calm 10.00 Fair CLR 69.8 57.2 64% 30.18 0.0
22 00:15 Calm 10.00 Fair CLR 69.8 57.2 64% 30.18 0.0
21 23:50 Calm 10.00 Fair CLR 69.8 55.4 60% 30.18 0.0
21 23:35 Calm 10.00 Fair CLR 69.8 57.2 64% 30.18 0.0
21 23:10 Calm 10.00 Fair CLR 73.4 55.4 53% 30.18 0.0
21 22:50 Calm 10.00 Fair CLR 75.2 57.2 54% 78 30.18 0.0
21 22:35 Calm 10.00 Fair CLR 75.2 57.2 54% 78 30.18 0.0
21 22:10 Calm 10.00 Fair CLR 75.2 57.2 54% 78 30.17 0.0
21 21:50 Calm 10.00 Fair CLR 78.8 55.4 45% 79 30.16 0.0
21 21:30 SE 3 10.00 Fair CLR 78.8 55.4 45% 79 30.16 0.0
21 21:10 Calm 10.00 Fair CLR 80.6 55.4 42% 81 30.14 0.0
21 20:50 Calm 10.00 Fair CLR 82.4 53.6 37% 81 30.14 0.0
21 20:35 Calm 10.00 Fair CLR 82.4 53.6 37% 81 30.14 0.0
21 20:10 Calm 10.00 Fair CLR 84.2 53.6 35% 83 30.14 0.0
21 19:55 Calm 10.00 Fair CLR 87.8 51.8 29% 85 30.14 0.0
21 19:30 E 3 10.00 Fair CLR 87.8 51.8 29% 85 30.14 0.0
21 19:15 Calm 10.00 Fair CLR 86 50 29% 84 30.14 0.0
21 18:55 E 9 10.00 Fair CLR 87.8 50 27% 85 30.14 0.0
21 18:35 E 6 10.00 Fair CLR 87.8 50 27% 85 30.13 0.0
21 18:15 E 9 G 15 10.00 Fair CLR 89.6 50 26% 87 30.14 0.0
21 17:50 E 10 G 17 10.00 Fair CLR 89.6 51.8 27% 87 30.15 0.0
21 17:30 E 17 G 24 10.00 Fair CLR 89.6 51.8 27% 87 30.16 0.0
21 17:15 E 21 G 31 10.00 Fair and Breezy CLR 87.8 51.8 29% 85 30.16 0.0
21 16:50 E 21 G 31 10.00 Fair and Breezy CLR 86 53.6 33% 84 30.17 0.0
21 16:30 SE 22 G 32 10.00 Fair and Breezy CLR 87.8 55.4 33% 86 30.17 0.0
21 15:50 NE 22 9.00 A Few Clouds and Breezy FEW047 FEW085 FEW120 93.2 55.4 28% 91 30.18 0.0
21 15:30 N 8 10.00 A Few Clouds FEW075 FEW110 95 51.8 23% 92 30.16 0.0
21 15:10 N 9 10.00 Fair CLR 93.2 50 23% 90 30.17 0.0
21 14:50 NW 9 G 16 10.00 Fair CLR 89.6 53.6 29% 87 30.17 0.0
21 14:30 N 10 G 17 10.00 Fair CLR 89.6 51.8 27% 87 30.17 0.0
21 14:10 N 12 G 29 10.00 Partly Cloudy FEW042 FEW055 SCT090 91.4 53.6 28% 89 30.17 0.0
21 13:55 N 7 10.00 Fair CLR 96.8 50 20% 94 30.17 0.0
21 13:30 Calm 10.00 Fair CLR 93.2 50 23% 90 30.18 0.0
21 13:10 Calm 10.00 Fair CLR 93.2 50 23% 90 30.19 0.0
21 12:50 Vrbl 3 10.00 Fair CLR 95 51.8 23% 92 30.2 0.0
21 12:35 SE 8 10.00 Fair CLR 93.2 51.8 24% 90 30.2 0.0
21 12:15 Calm 10.00 Fair CLR 91.4 50 24% 88 30.21 0.0
21 11:45 Calm 10.00 Fair CLR 91.4 50 24% 88 30.22 0.0
21 11:35 Calm 10.00 Fair CLR 91.4 51.8 26% 89 30.22 0.0
21 11:10 E 3 G 12 10.00 Fair CLR 89.6 51.8 27% 87 30.22 0.0
21 10:55 Calm 10.00 Fair CLR 87.8 53.6 31% 86 30.22 0.0
21 10:35 Vrbl 5 10.00 Fair CLR 87.8 53.6 31% 86 30.23 0.0
21 10:10 Calm 10.00 Fair CLR 84.2 51.8 33% 82 30.23 0.0
21 09:50 N 7 10.00 NULL NULL 82.4 53.6 37% 81 30.24 0.0
21 09:35 N 7 0.00 NULL NULL 0 0 0% 30.23 0.0
21 09:15 N 9 10.00 Fair CLR 77 53.6 44% 78 30.24 0.0
21 08:55 N 8 10.00 Fair CLR 75.2 55.4 50% 78 30.23 0.0
21 08:35 N 8 10.00 A Few Clouds FEW080 FEW120 75.2 53.6 47% 78 30.23 0.0
21 08:15 N 6 G 12 10.00 Partly Cloudy SCT120 75.2 53.6 47% 78 30.23 0.0
21 07:55 N 10 10.00 Partly Cloudy SCT120 73.4 53.6 50% 30.23 0.0
21 07:35 N 13 10.00 Fair CLR 73.4 53.6 50% 30.22 0.0
21 07:15 N 13 10.00 Fair CLR 71.6 51.8 50% 30.21 0.0
21 06:55 N 12 G 17 10.00 A Few Clouds FEW120 71.6 51.8 50% 30.21 0.0
21 06:35 N 15 10.00 Partly Cloudy SCT120 71.6 51.8 50% 30.21 0.0
21 06:15 N 15 10.00 Partly Cloudy SCT120 73.4 51.8 47% 30.21 0.0
21 05:55 N 10 10.00 Fair CLR 73.4 53.6 50% 30.2 0.0
Date Time (mdt) Wind (mph) Vis. (mi.) Weather Sky Cond. Air Dwpt Max. Min. Relative Humidity Wind Chill (°F) Heat Index (°F) altimeter (in) sea level (mb) 1 hr 3 hr 6 hr
6 hour
Temperature (ºF) Pressure Precipitation (in)